Regional Weather Roundup
Issued by NWS Cleveland, OH

Home | Current Version | Previous Version | Text Only | Print | Product List | Glossary Off
Versions: 1 2 3 4 5 6 7 8 9 10 11 12 13 14 15 16 17 18 19 20 21 22 23 24 25 26 27 28 29 30 31 32 33 34 35 36 37 38 39 40 41 42 43 44 45 46 47 48 49 50

000
ASUS41 KCLE 240812
RWRCLE
OHIO REGIONAL WEATHER ROUNDUP
NATIONAL WEATHER SERVICE WILMINGTON, OH
400 AM EDT MON JUL 24 2017

NOTE: "FAIR" INDICATES FEW OR NO CLOUDS BELOW 12,000 FEET WITH NO
SIGNIFICANT WEATHER AND/OR OBSTRUCTIONS TO VISIBILITY.

OHZ001>008-015>018-024>027-034-035-043-044-240900-
   NORTHWEST OHIO

CITY           SKY/WX    TMP DP  RH WIND       PRES   REMARKS
DEFIANCE       MOCLDY   N/A N/A N/A NW5       29.82S
FINDLAY        FAIR      69  65  86 SW6       29.80S
TOLEDO EXPRESS FAIR      69  67  93 NW6       29.80S
TOLEDO EXEC    FAIR      70  68  93 NW6       29.80F
LIMA           FAIR      68  67  96 W5        29.83S
$$

OHZ009>014-019>023-028>033-038-089-240900-
   NORTHEAST OHIO

CITY           SKY/WX    TMP DP  RH WIND       PRES   REMARKS
CLE-HOPKINS    FAIR      69  65  86 S7        29.80S
CLE-LAKEFRONT  MOCLDY    71  66  84 SW9       29.77S
CUY CO. ARPT   NOT AVBL
LORAIN-ELYRIA  FAIR      66  61  84 W6        29.80S
ASHTABULA      FAIR      67  67 100 W6        29.77S
AKRON-CANTON   FAIR      67  63  87 W5        29.81S
WOOSTER        FAIR      64  64 100 W3        29.81F
MANSFIELD      FAIR      67  66  97 SW7       29.83R
YOUNGSTOWN     FOG       69  67  93 SW8       29.78F VSB 1
$$

OHZ042-051>053-060>062-070>072-077>081-240900-
  SOUTHWEST OHIO

CITY           SKY/WX    TMP DP  RH WIND       PRES   REMARKS
CINC-COVINGTON FAIR      71  71 100 SW5       29.86S
CINC-LUNKEN    FAIR      68  68 100 S3        29.86S
HAMILTON       FAIR      67  67 100 CALM      29.86R
DAYTON         FAIR      69  67  93 W5        29.85S
WRIGHT-PAT AFB FAIR      68  68 100 CALM      29.83F
DAYTON GENERAL MOCLDY    70  68  93 S3        29.84S
WILMINGTON     FAIR      67  67 100 SW5       29.85S
$$

OHZ036-037-039>041-045>050-054>059-063>069-073>076-082>088-240900-
  CENTRAL AND SOUTHEAST OHIO

CITY           SKY/WX    TMP DP  RH WIND       PRES   REMARKS
COLUMBUS       FAIR      67  67 100 S3        29.82F
OSU AIRPORT    FAIR      66  66 100 CALM      29.82F
BOLTON FIELD   FAIR      65  65 100 SW5       29.84S
RICKENBACK AFB FAIR      65  66 100 S3        29.83S
NEWARK         FAIR      67  66  97 S3        29.82F
MARION         FAIR      66  64  93 S3        29.82F
LANCASTER      FAIR      55  32  41 CALM      29.84S
ZANESVILLE     FOG       67  65  93 CALM      29.83R VSB 1/2
NEW PHILLY     CLOUDY    67  67 100 VRB3      29.82S FOG
$$



USA.gov is the U.S. government's official web portal to all federal, state and local government web resources and services.